Weather History for Samos, Greece

Change the Weather History Date:

Monday, October 8, 2012

  Actual Average Record
Temperature  
Mean Temperature 70 °F -  
Max Temperature 77 °F 71 °F 84 °F (1998)
Min Temperature 62 °F 57 °F 55 °F (1997)
Cooling Degree Days 4    
Growing Degree Days 20 (Base 50)    
Moisture  
Dew Point 64 °F    
Average Humidity 79    
Maximum Humidity 94    
Minimum Humidity 55    
Precipitation  
Precipitation 0.00 in 0.07 in - ()
Sea Level Pressure  
Sea Level Pressure 29.87 in    
Wind  
Wind Speed 3 mph ()    
Max Wind Speed 13 mph    
Max Gust Speed -    
Visibility 6.2 miles    
Events      
Averages and records for this station are not official NWS values.
T = Trace of Precipitation, MM = Missing Value Source: Averaged Metar Reports

Daily Weather History Graph

Daily Weather History Graph

Search for Another Location

Airport:

Trip Planner

Search our weather history database for the weather conditions in past years. The results will help you decide how hot, cold, wet, or windy it might be!

Date:

Astronomy

Oct. 08, 2012 Rise Set
Actual Time 7:14 AM EEST 6:44 PM EEST
Civil Twilight 6:48 AM EEST 7:10 PM EEST
Nautical Twilight 6:17 AM EEST 7:41 PM EEST
Astronomical Twilight 5:47 AM EEST 8:11 PM EEST
Moon No Moon Rise 2:14 PM EEST (10/8)
Length of Visible Light 12h 22m
Length of Day
11h 30m
Waning Gibbous, 49% of the Moon is Illuminated
Oct 8
Waning Gibbous
Oct 15
New
Oct 22
First Quarter
Oct 29
Full
Nov 7
Last Quarter

Hourly Weather History & Observations

Time (EEST) Temp. Dew Point Humidity Pressure Visibility Wind Dir Wind Speed Gust Speed Precip Events Conditions
4:50 AM 62.6 °F 59.0 °F 88% 29.89 in - Calm Calm - N/A   Clear
5:20 AM 62.6 °F 59.0 °F 88% 29.89 in - Calm Calm - N/A   Clear
5:50 AM 62.6 °F 60.8 °F 94% 29.89 in - Calm Calm - N/A   Clear
6:20 AM 62.6 °F 60.8 °F 94% 29.89 in - Calm Calm - N/A   Clear
6:50 AM 62.6 °F 60.8 °F 94% 29.89 in - Calm Calm - N/A   Clear
7:20 AM 64.4 °F 60.8 °F 88% 29.89 in - Calm Calm - N/A   Clear
7:50 AM 64.4 °F 59.0 °F 83% 29.89 in 6.2 mi Calm Calm - N/A   Scattered Clouds
8:20 AM 64.4 °F 60.8 °F 88% 29.89 in 6.2 mi Calm Calm - N/A   Scattered Clouds
8:50 AM 64.4 °F 59.0 °F 83% 29.89 in 6.2 mi Calm Calm - N/A   Mostly Cloudy
9:00 AM 65 °F 59 °F 75% 29.91 in 6 mi Calm Calm - -   Partly Cloudy
9:20 AM 66.2 °F 59.0 °F 78% 29.89 in 6.2 mi Calm Calm - N/A   Mostly Cloudy
9:50 AM 69.8 °F 64.4 °F 83% 29.89 in 6.2 mi Variable 4.6 mph - N/A   Mostly Cloudy
10:20 AM 71.6 °F 64.4 °F 78% 29.89 in 6.2 mi Variable 4.6 mph - N/A   Mostly Cloudy
10:50 AM 73.4 °F 64.4 °F 73% 29.89 in 6.2 mi SSE 4.6 mph - N/A   Mostly Cloudy
11:20 AM 71.6 °F 64.4 °F 78% 29.89 in 6.2 mi Variable 4.6 mph - N/A   Mostly Cloudy
11:50 AM 75.2 °F 66.2 °F 73% 29.89 in 6.2 mi SE 4.6 mph - N/A   Mostly Cloudy
12:20 PM 75.2 °F 66.2 °F 73% 29.89 in 6.2 mi SE 4.6 mph - N/A   Mostly Cloudy
12:50 PM 75.2 °F 66.2 °F 73% 29.89 in 6.2 mi SE 8.1 mph - N/A   Mostly Cloudy
1:20 PM 73.4 °F 64.4 °F 73% 29.86 in 6.2 mi SE 8.1 mph - N/A   Mostly Cloudy
1:50 PM 73.4 °F 64.4 °F 73% 29.86 in 6.2 mi SSE 9.2 mph - N/A   Mostly Cloudy
2:20 PM 75.2 °F 64.4 °F 69% 29.86 in 6.2 mi SE 9.2 mph - N/A   Mostly Cloudy
2:50 PM 77.0 °F 64.4 °F 65% 29.86 in 6.2 mi SE 9.2 mph - N/A   Scattered Clouds
3:00 PM 77 °F 64 °F 55% 29.87 in 6 mi SE 9.2 mph - -   Scattered Clouds
3:20 PM 77.0 °F 64.4 °F 65% 29.86 in 6.2 mi SSE 11.5 mph - N/A   Scattered Clouds
3:50 PM 77.0 °F 62.6 °F 61% 29.83 in 6.2 mi SSE 12.7 mph - N/A   Partly Cloudy
4:20 PM 75.2 °F 66.2 °F 73% 29.83 in 6.2 mi SSE 11.5 mph - N/A   Scattered Clouds
4:50 PM 75.2 °F 66.2 °F 73% 29.83 in 6.2 mi SSE 10.4 mph - N/A   Scattered Clouds
5:20 PM 75.2 °F 66.2 °F 73% 29.83 in 6.2 mi South 11.5 mph - N/A   Scattered Clouds
5:50 PM 75.2 °F 66.2 °F 73% 29.83 in 6.2 mi South 9.2 mph - N/A   Scattered Clouds
6:20 PM 73.4 °F 66.2 °F 78% 29.83 in 6.2 mi South 8.1 mph - N/A   Scattered Clouds
6:50 PM 73.4 °F 66.2 °F 78% 29.83 in 6.2 mi Variable 2.3 mph - N/A   Scattered Clouds
7:20 PM 71.6 °F 68.0 °F 88% 29.83 in 6.2 mi NNW 3.5 mph - N/A   Scattered Clouds
7:50 PM 71.6 °F 68.0 °F 88% 29.83 in 6.2 mi WNW 3.5 mph - N/A   Scattered Clouds
8:20 PM 71.6 °F 68.0 °F 88% 29.83 in 6.2 mi North 4.6 mph - N/A   Scattered Clouds
8:50 PM 69.8 °F 66.2 °F 88% 29.86 in 6.2 mi NNE 3.5 mph - N/A   Scattered Clouds
9:00 PM 71 °F 67 °F 82% 29.87 in 6 mi NNE 3.5 mph - -   Scattered Clouds
9:20 PM 69.8 °F 66.2 °F 88% 29.86 in 6.2 mi Calm Calm - N/A   Scattered Clouds
9:50 PM 68.0 °F 66.2 °F 94% 29.86 in 6.2 mi Calm Calm - N/A   Partly Cloudy